Location: Fort Worth, Tx
(32.7431°N, 97.3695°W)
Time: 12:41:44
(UTC-04:00)

Transit 2A - Pass Details

Date: 28 February 2024
Orbit: 596 x 956 km, 66.7° (Epoch: 20 April)

Event Time Altitude Azimuth Distance (km) Brightness Sun altitude
Exits shadow 05:11:23 31° 95° (E) 1,346 7.6 -35.8°
Drops below altitude 10° 05:15:01 10° 128° (SE) 2,422 8.9 -35.1°
Sets 05:17:45 0° 136° (SE) 3,413 9.7 -34.5°
